Weather History for Moses Lake, WA

Change the Weather History Date:

Monday, June 17, 2013

  Actual Average Record
Temperature  
Mean Temperature 75 °F 66 °F  
Max Temperature 86 °F 80 °F 93 °F (2003)
Min Temperature 63 °F 52 °F 45 °F (2011)
Degree Days  
Heating Degree Days 0 1  
Month to date heating degree days 20 40  
Since 1 June heating degree days 20 40  
Since 1 July heating degree days 5301 5867  
Cooling Degree Days 10 3  
Month to date cooling degree days 62 35  
Year to date cooling degree days 112 60  
Since 1 June cooling degree days 62 35  
Growing Degree Days 24 (Base 50)    
Moisture  
Dew Point 49 °F    
Average Humidity 41    
Maximum Humidity 63    
Minimum Humidity 19    
Precipitation  
Precipitation 0.12 in 0.03 in 0.12 in (2013)
Month to date precipitation 0.24 0.53  
Year to date precipitation 2.32 4.55  
Sea Level Pressure  
Sea Level Pressure 29.90 in    
Wind  
Wind Speed 7 mph (SSW)    
Max Wind Speed 18 mph    
Max Gust Speed 26 mph    
Visibility 10 miles    
Events Rain , Thunderstorm    
T = Trace of Precipitation, MM = Missing Value Source: NWS Daily Summary

Daily Weather History Graph

Daily Weather History Graph

Search for Another Location

Airport:

Trip Planner

Search our weather history database for the weather conditions in past years. The results will help you decide how hot, cold, wet, or windy it might be!

Date:

Astronomy

Jun. 17, 2013 Rise Set
Actual Time 5:00 AM PDT 8:55 PM PDT
Civil Twilight 4:20 AM PDT 9:36 PM PDT
Nautical Twilight 3:25 AM PDT 10:31 PM PDT
Astronomical Twilight 2:00 AM PDT 11:56 PM PDT
Moon 2:20 PM PDT (6/17) 1:01 AM PDT (6/17)
Length of Visible Light 17h 15m
Length of Day
15h 55m
First Quarter, 61% of the Moon is Illuminated
Jun 17
First Quarter
Jun 23
Full
Jun 29
Last Quarter
Jul 8
New
Jul 15
First Quarter

Hourly Weather History & Observations

Time (PDT) Temp. Dew Point Humidity Pressure Visibility Wind Dir Wind Speed Gust Speed Precip Events Conditions
12:52 AM 73.0 °F 48.0 °F 41% 29.91 in 10.0 mi West 9.2 mph - N/A   Mostly Cloudy
1:52 AM 73.0 °F 46.9 °F 39% 29.92 in 10.0 mi North 11.5 mph - N/A   Mostly Cloudy
2:52 AM 71.1 °F 48.0 °F 44% 29.93 in 10.0 mi West 8.1 mph - N/A   Mostly Cloudy
3:52 AM 69.1 °F 46.9 °F 45% 29.92 in 10.0 mi NW 6.9 mph - N/A   Clear
4:52 AM 66.0 °F 53.1 °F 63% 29.93 in 10.0 mi WSW 5.8 mph - N/A   Scattered Clouds
5:52 AM 64.9 °F 52.0 °F 63% 29.93 in 10.0 mi NNW 5.8 mph - 0.00 in   Mostly Cloudy
6:52 AM 64.9 °F 51.1 °F 61% 29.96 in 10.0 mi WSW 11.5 mph - N/A   Mostly Cloudy
7:52 AM 68.0 °F 52.0 °F 56% 29.95 in 10.0 mi SSW 6.9 mph - N/A   Mostly Cloudy
8:52 AM 69.1 °F 50.0 °F 51% 29.96 in 10.0 mi SW 6.9 mph - N/A   Clear
9:52 AM 73.0 °F 51.1 °F 46% 29.96 in 10.0 mi Variable 4.6 mph - N/A   Clear
10:52 AM 75.9 °F 46.0 °F 35% 29.95 in 10.0 mi South 12.7 mph - N/A   Clear
11:52 AM 78.1 °F 46.0 °F 32% 29.94 in 10.0 mi SSW 12.7 mph 16.1 mph N/A   Partly Cloudy
12:52 PM 79.0 °F 45.0 °F 30% 29.93 in 10.0 mi Variable 4.6 mph - N/A   Clear
1:52 PM 81.0 °F 42.1 °F 25% 29.90 in 10.0 mi SSW 5.8 mph - N/A   Clear
2:52 PM 82.9 °F 39.0 °F 21% 29.88 in 10.0 mi South 9.2 mph - N/A   Clear
3:52 PM 84.0 °F 39.0 °F 20% 29.86 in 10.0 mi Variable 3.5 mph 17.3 mph N/A   Clear
4:52 PM 84.9 °F 37.9 °F 19% 29.84 in 10.0 mi Variable 3.5 mph - N/A   Clear
5:52 PM 84.0 °F 37.9 °F 19% 29.81 in 10.0 mi ESE 4.6 mph - N/A   Clear
6:52 PM 80.1 °F 45.0 °F 29% 29.82 in 10.0 mi West 15.0 mph 26.5 mph 0.00 in Rain Light Rain
7:52 PM 73.9 °F 50.0 °F 43% 29.82 in 10.0 mi South 4.6 mph - 0.02 in   Partly Cloudy
8:52 PM 69.1 °F 55.9 °F 63% 29.83 in 9.0 mi Calm Calm - 0.01 in Rain , Thunderstorm Light Thunderstorms and Rain
9:00 PM 69.8 °F 55.4 °F 60% 29.86 in 10.0 mi SSE 4.6 mph - 0.00 in   Mostly Cloudy
9:52 PM 68.0 °F 55.0 °F 63% 29.87 in 10.0 mi SSW 5.8 mph - 0.02 in Rain Light Rain
10:19 PM 69.8 °F 51.8 °F 53% 29.91 in 10.0 mi South 12.7 mph - 0.00 in Thunderstorm Overcast
10:41 PM 66.2 °F 53.6 °F 64% 29.88 in 10.0 mi SSE 11.5 mph - 0.04 in Rain Light Rain
10:52 PM 64.9 °F 57.9 °F 78% 29.85 in 10.0 mi ESE 10.4 mph - 0.04 in   Scattered Clouds
11:29 PM 64.4 °F 57.2 °F 77% 29.93 in 9.0 mi South 13.8 mph - 0.02 in Rain , Thunderstorm Light Thunderstorms and Rain
11:47 PM 64.4 °F 57.2 °F 77% 29.91 in 10.0 mi South 3.5 mph - 0.03 in Rain Light Rain
11:52 PM 64.9 °F 57.9 °F 78% 29.89 in 10.0 mi Calm Calm - 0.03 in Rain Light Rain